Location: Houston
(29.7630°N, 95.3630°W)
Time: 04:19:35
(UTC-05:00)

Daily predictions for brighter satellites

Satellite Brightness Start Highest point End
(mag) Time Altitude Azimuth Time Altitude Azimuth Time Altitude Azimuth
CZ-3 Stage 3 4.5 01:57:19 76° ENE 01:57:19 76° ENE 02:52:51 10° E
SL-16 R/B 3.9 03:15:37 35° NNE 03:15:37 35° NNE 03:19:42 10° N
Resurs 1-4 Rocket 4.2 03:17:32 10° NNE 03:19:26 22° NNE 03:19:26 22° NNE
CZ-2D R/B 4.0 03:27:58 10° NNE 03:30:15 26° NNE 03:30:15 26° NNE
ARIANE 5 R/B 4.1 03:49:57 10° N 03:52:31 30° N 03:52:31 30° N
Hubble Space Telescope 3.5 04:12:56 14° E 04:12:56 14° E 04:13:40 10° E
ADEOS II 3.7 04:08:56 10° NE 04:13:22 27° E 04:14:51 24° SE
Cosmos 2100 Rocket 4.4 04:21:04 47° SE 04:22:38 61° E 04:28:54 10° NNE
Cosmos 773 Rocket 4.3 04:26:23 59° ESE 04:26:23 59° ESE 04:31:35 10° NNE
COSMOS 2406 4.3 04:29:09 32° NW 04:29:09 32° NW 04:32:57 10° N
Cosmos 2285 Rocket 4.4 04:31:44 46° NW 04:31:44 46° NW 04:37:13 10° N
Cosmos 1447 Rocket 4.4 04:25:49 10° N 04:32:01 89° E 04:33:07 63° S
Cosmos 1833 Rocket 4.2 04:32:19 21° SSE 04:34:57 31° ESE 04:39:52 10° NE
Meteor 2-10 4.1 04:38:20 73° S 04:38:55 88° E 04:44:39 10° N
Cosmos 1151 Rocket 4.1 04:38:20 36° ESE 04:39:02 39° E 04:43:02 10° NNE
Okean O Rocket 3.5 04:35:32 10° NE 04:39:16 27° E 04:41:18 19° SE
Cosmos 2173 Rocket 3.9 04:47:05 47° S 04:49:03 86° W 04:55:25 10° N
Meteor 2-17 Rocket 4.4 04:52:13 56° WSW 04:53:01 61° W 04:59:05 10° N
Sich 1 4.3 04:52:18 10° NNW 04:54:41 30° NNW 04:54:41 30° NNW
SL-16 R/B 4.3 05:00:43 16° WNW 05:00:43 16° WNW 05:02:18 10° NW
Resurs 1-4 Rocket 4.3 04:59:45 10° NW 05:00:31 11° NW 05:00:31 11° NW
Cosmos 1455 3.5 05:00:22 24° SE 05:02:03 38° E 05:05:33 10° NNE
ERBS 4.0 05:10:08 23° SE 05:10:08 23° SE 05:11:34 10° SE
Cosmos 2228 Rocket 3.3 05:08:44 50° WNW 05:08:44 50° WNW 05:12:55 10° N
Cosmos 1459 Rocket 4.1 05:10:07 39° SW 05:11:58 52° W 05:17:53 10° N
Cosmos 1470 Rocket 3.4 05:08:26 10° N 05:12:46 87° E 05:15:48 19° S
Cosmos 1515 Rocket 3.7 05:15:04 50° W 05:15:20 51° W 05:19:37 10° N
Fermi 4.1 05:18:14 46° SSW 05:18:33 47° S 05:22:32 10° ESE
Tiangong 2 2.1 05:19:05 36° NNW 05:19:05 36° NNW 05:22:04 10° NE
Cosmos 2082 Rocket 2.1 05:16:24 27° SSW 05:19:36 89° ESE 05:25:15 10° NNE
Centaur D AC-29 3.4 05:15:47 30° WSW 05:19:41 47° S 06:15:36 10° SE
Cosmos 923 Rocket 3.9 05:17:54 35° SSW 05:20:04 71° WNW 05:25:18 10° N
ASTRO E2 4.3 05:21:51 21° S 05:21:51 21° S 05:23:48 10° SSE
Cosmos 1633 Rocket 4.3 05:21:14 10° NNW 05:23:50 25° WNW 05:23:50 25° WNW
PSLV R/B 4.1 05:21:47 10° N 05:25:47 50° WNW 05:26:50 40° WSW
IRS-1C Rocket 4.2 05:22:01 10° NNE 05:27:18 76° ESE 05:32:32 10° S
USA 229 DEB 4.1 05:22:04 10° NW 05:28:50 44° WSW 05:35:42 10° S
USA 229 4.1 05:22:10 10° NW 05:28:57 44° WSW 05:35:49 10° S
Cosmos 2061 Rocket 4.5 05:28:46 26° SW 05:31:46 41° W 05:37:47 10° N
Meteor 2-3 Rocket 3.8 05:26:09 10° N 05:31:49 84° E 05:37:32 10° S
Cosmos 192 4.4 05:30:47 27° SW 05:33:20 60° WNW 05:38:14 10° N
Lacrosse 5 4.3 05:29:39 10° N 05:33:40 23° NE 05:37:41 10° E
NOSS 3-1 (A) 4.4 05:26:26 10° NNW 05:34:22 72° ENE 05:42:56 10° SE
CZ-4B R/B 3.4 05:31:06 10° N 05:35:25 47° WNW 05:37:40 26° SW
Meteor 1-31 Rocket 3.6 05:32:53 10° NNE 05:36:44 51° E 05:40:34 10° S
Cosmos 1680 Rocket 3.6 05:35:41 21° SSW 05:39:10 61° WNW 05:44:26 10° N
Meteor PRIRODA 3.7 05:36:45 10° NNE 05:40:24 74° E 05:44:01 10° S
CZ-4B R/B 3.1 05:36:55 10° N 05:42:21 71° WNW 05:47:39 10° SSW
Landsat 4 3.8 05:40:39 10° SSE 05:44:20 76° ENE 05:48:04 10° N
Cosmos 2112 Rocket 4.0 05:41:32 16° SSW 05:45:42 63° WNW 05:51:00 10° N
Cosmos 2233 Rocket 4.0 05:40:29 10° S 05:46:37 83° E 05:52:45 10° N
Shenzhou-11 Module 4.4 05:46:46 12° NW 05:48:14 16° NNW 05:50:13 10° NNE
Cosmos 1892 2.8 05:45:06 10° NNW 05:48:50 51° W 05:52:34 10° S
PAYLOAD B 4.5 05:44:38 10° N 05:50:03 52° WNW 05:55:24 10° SSW
Hubble Space Telescope 0.7 05:48:18 23° W 05:50:49 75° S 05:54:56 10° E
Cosmos 2084 3.2 05:49:08 18° SW 05:52:11 74° WNW 05:56:09 10° NNE
ADEOS II 3.1 05:48:36 10° NNW 05:52:56 27° WNW 05:55:48 17° WSW
Cosmos 2369 3.6 05:47:28 10° NNW 05:53:08 85° WSW 05:58:47 10° SSE
OAO 2 Rocket 3.2 05:50:54 20° WSW 05:54:21 84° NNW 05:59:23 10° ENE
USA 234 3.3 05:52:50 10° NE 05:59:21 72° NW 06:05:41 11° SW
COSMOS 2487 4.0 06:02:35 16° W 06:03:53 19° WNW 06:06:29 10° NNW
NOSS 3-1 (C) 4.2 05:56:11 10° NW 06:03:59 57° WSW 06:12:17 10° S
Cosmos 1825 3.3 06:00:23 10° N 06:04:03 47° E 06:07:44 10° SSE
Cosmos 1725 Rocket 4.4 05:58:30 10° SSW 06:04:13 39° W 06:09:58 10° NNW
Abrixas 4.3 06:03:01 10° NNW 06:05:22 28° NE 06:07:41 10° E
Kakehashi 4.1 06:00:13 12° W 06:05:38 87° N 06:17:10 10° E
Cosmos 1656 3.7 06:01:33 10° NNW 06:07:17 85° WSW 06:12:56 10° SSE
Lacrosse 4 Rocket 3.7 06:08:00 10° SSE 06:11:41 26° ESE 06:15:25 10° NE
Okean-O 2.8 06:07:41 10° NNE 06:12:08 78° ESE 06:16:33 10° S
Okean O Rocket 3.1 06:12:15 10° NNW 06:15:24 19° WNW 06:18:32 10° WSW
Cosmos 1833 Rocket 3.8 06:14:05 10° WSW 06:18:47 27° WNW 06:23:30 10° N
Cosmos 1707 Rocket 3.8 06:15:20 10° SSW 06:19:37 49° W 06:23:54 10° N
Cosmos 1408 2.5 06:16:21 10° N 06:19:59 88° W 06:23:34 10° S
IDEFIX/ARIANE 42P 4.3 06:19:20 10° NNE 06:24:08 36° E 06:28:55 10° SSE
ATLAS 3B CENTAUR R/B 4.4 06:00:11 10° W 06:26:14 83° S 06:35:01 10° E
GPS 2-04 Rocket1 3.3 06:25:38 10° SW 06:28:53 41° SSE 06:32:15 10° E
H-2A R/B 3.4 06:53:55 10° W 07:24:14 84° S 07:28:28 10° E
